View from above orbital plane
|
View from above satellite
|
Ground track
|
The orbit data is extracted from the following two-line orbital elements,
1 23561U 95021B 21021.74038135 .00000020 00000-0 21804-4 0 9992
2 23561 98.6972 69.9594 0006314 334.5375 136.2408 14.38005129350168
Epoch (UTC): | 21 January 2021 17:46:08 |
Eccentricity: | 0.0006314 |
inclination: | 98.6972° |
perigee height: | 760 km |
apogee height: | 769 km |
right ascension of ascending node: | 69.9594° |
argument of perigee: | 334.5375° |
revolutions per day: | 14.38005129 |
mean anomaly at epoch: | 136.2408° |
orbit number at epoch: | 35016 |
The dashed part of the orbit path shows where the satellite is in the earth's shadow,
|
|